Year,Month,Day,Hour,Minute,Value (Times are PST for temperature in C)
2007,09,18,00,00,11.10
2007,09,18,00,01,11.10
2007,09,18,00,02,11.10
2007,09,18,00,03,11.10
2007,09,18,00,04,11.00
2007,09,18,00,05,11.00
2007,09,18,00,06,10.90
2007,09,18,00,07,10.90
2007,09,18,00,08,10.90
2007,09,18,00,09,10.80
2007,09,18,00,10,10.80
2007,09,18,00,11,10.80
2007,09,18,00,12,10.80
2007,09,18,00,13,10.80
2007,09,18,00,14,10.80
2007,09,18,00,15,10.80
2007,09,18,00,16,10.80
2007,09,18,00,17,10.80
2007,09,18,00,18,10.80
2007,09,18,00,19,10.80
2007,09,18,00,20,10.80
2007,09,18,00,21,10.70
2007,09,18,00,22,10.70
2007,09,18,00,23,10.70
2007,09,18,00,24,10.70
2007,09,18,00,25,10.70
2007,09,18,00,26,10.70
2007,09,18,00,27,10.70
2007,09,18,00,28,10.70
2007,09,18,00,29,10.70
2007,09,18,00,30,10.70
2007,09,18,00,31,10.70
2007,09,18,00,32,10.70
2007,09,18,00,33,10.70
2007,09,18,00,34,10.70
2007,09,18,00,35,10.70
2007,09,18,00,36,10.70
2007,09,18,00,37,10.70
2007,09,18,00,38,10.70
2007,09,18,00,39,10.70
2007,09,18,00,40,10.70
2007,09,18,00,41,10.70
2007,09,18,00,42,10.70
2007,09,18,00,43,10.70
2007,09,18,00,44,10.70
2007,09,18,00,45,10.70
2007,09,18,00,46,10.70
2007,09,18,00,47,10.70
2007,09,18,00,48,10.60
2007,09,18,00,49,10.60
2007,09,18,00,50,10.70
2007,09,18,00,51,10.70
2007,09,18,00,52,10.60
2007,09,18,00,53,10.60
2007,09,18,00,54,10.60
2007,09,18,00,55,10.60
2007,09,18,00,56,10.60
2007,09,18,00,57,10.60
2007,09,18,00,58,10.60
2007,09,18,00,59,10.60
2007,09,18,01,00,10.60
2007,09,18,01,01,10.60
2007,09,18,01,02,10.60
2007,09,18,01,03,10.60
2007,09,18,01,04,10.60
2007,09,18,01,05,10.60
2007,09,18,01,06,10.60
2007,09,18,01,07,10.70
2007,09,18,01,08,10.70
2007,09,18,01,09,10.70
2007,09,18,01,10,10.70
2007,09,18,01,11,10.70
2007,09,18,01,12,10.70
2007,09,18,01,13,10.60
2007,09,18,01,14,10.60
2007,09,18,01,15,10.60
2007,09,18,01,16,10.60
2007,09,18,01,17,10.60
2007,09,18,01,18,10.60
2007,09,18,01,19,10.60
2007,09,18,01,20,10.60
2007,09,18,01,21,10.60
2007,09,18,01,22,10.60
2007,09,18,01,23,10.60
2007,09,18,01,24,10.60
2007,09,18,01,25,10.60
2007,09,18,01,26,10.60
2007,09,18,01,27,10.60
2007,09,18,01,28,10.60
2007,09,18,01,29,10.60
2007,09,18,01,30,10.60
2007,09,18,01,31,10.60
2007,09,18,01,32,10.60
2007,09,18,01,33,10.60
2007,09,18,01,34,10.60
2007,09,18,01,35,10.60
2007,09,18,01,36,10.60
2007,09,18,01,37,10.60
2007,09,18,01,38,10.50
2007,09,18,01,39,10.50
2007,09,18,01,40,10.50
2007,09,18,01,41,10.40
2007,09,18,01,42,10.40
2007,09,18,01,43,10.40
2007,09,18,01,44,10.40
2007,09,18,01,45,10.40
2007,09,18,01,46,10.40
2007,09,18,01,47,10.40
2007,09,18,01,48,10.30
2007,09,18,01,49,10.30
2007,09,18,01,50,10.30
2007,09,18,01,51,10.30
2007,09,18,01,52,10.30
2007,09,18,01,53,10.30
2007,09,18,01,54,10.30
2007,09,18,01,55,10.30
2007,09,18,01,56,10.30
2007,09,18,01,57,10.30
2007,09,18,01,58,10.20
2007,09,18,01,59,10.20
2007,09,18,02,00,10.20
2007,09,18,02,01,10.20
2007,09,18,02,02,10.20
2007,09,18,02,03,10.20
2007,09,18,02,04,10.10
2007,09,18,02,05,10.10
2007,09,18,02,06,10.10
2007,09,18,02,07,10.10
2007,09,18,02,08,10.10
2007,09,18,02,09,10.10
2007,09,18,02,10,10.10
2007,09,18,02,11,10.10
2007,09,18,02,12,10.00
2007,09,18,02,13,10.00
2007,09,18,02,14,10.00
2007,09,18,02,15,10.00
2007,09,18,02,16,9.90
2007,09,18,02,17,9.90
2007,09,18,02,18,9.90
2007,09,18,02,19,9.90
2007,09,18,02,20,9.90
2007,09,18,02,21,9.90
2007,09,18,02,22,9.90
2007,09,18,02,23,9.90
2007,09,18,02,24,9.90
2007,09,18,02,25,9.90
2007,09,18,02,26,9.90
2007,09,18,02,27,9.90
2007,09,18,02,28,9.90
2007,09,18,02,29,9.90
2007,09,18,02,30,9.90
2007,09,18,02,31,9.90
2007,09,18,02,32,9.90
2007,09,18,02,33,9.90
2007,09,18,02,34,9.90
2007,09,18,02,35,9.90
2007,09,18,02,36,9.80
2007,09,18,02,37,9.80
2007,09,18,02,38,9.80
2007,09,18,02,39,9.80
2007,09,18,02,40,9.80
2007,09,18,02,41,9.80
2007,09,18,02,42,9.80
2007,09,18,02,43,9.80
2007,09,18,02,44,9.80
2007,09,18,02,45,9.80
2007,09,18,02,46,9.80
2007,09,18,02,47,9.70
2007,09,18,02,48,9.70
2007,09,18,02,49,9.70
2007,09,18,02,50,9.70
2007,09,18,02,51,9.70
2007,09,18,02,52,9.70
2007,09,18,02,53,9.70
2007,09,18,02,54,9.70
2007,09,18,02,55,9.70
2007,09,18,02,56,9.70
2007,09,18,02,57,9.70
2007,09,18,02,58,9.70
2007,09,18,02,59,9.70
2007,09,18,03,00,9.70
2007,09,18,03,01,9.70
2007,09,18,03,02,9.60
2007,09,18,03,03,9.60
2007,09,18,03,04,9.60
2007,09,18,03,05,9.60
2007,09,18,03,06,9.60
2007,09,18,03,07,9.60
2007,09,18,03,08,9.60
2007,09,18,03,09,9.60
2007,09,18,03,10,9.50
2007,09,18,03,11,9.50
2007,09,18,03,12,9.50
2007,09,18,03,13,9.50
2007,09,18,03,14,9.50
2007,09,18,03,15,9.40
2007,09,18,03,16,9.40
2007,09,18,03,17,9.40
2007,09,18,03,18,9.40
2007,09,18,03,19,9.40
2007,09,18,03,20,9.40
2007,09,18,03,21,9.40
2007,09,18,03,22,9.40
2007,09,18,03,23,9.40
2007,09,18,03,24,9.30
2007,09,18,03,25,9.30
2007,09,18,03,26,9.30
2007,09,18,03,27,9.30
2007,09,18,03,28,9.30
2007,09,18,03,29,9.30
2007,09,18,03,30,9.30
2007,09,18,03,31,9.30
2007,09,18,03,32,9.30
2007,09,18,03,33,9.30
2007,09,18,03,34,9.30
2007,09,18,03,35,9.20
2007,09,18,03,36,9.20
2007,09,18,03,37,9.20
2007,09,18,03,38,9.20
2007,09,18,03,39,9.20
2007,09,18,03,40,9.20
2007,09,18,03,41,9.20
2007,09,18,03,42,9.20
2007,09,18,03,43,9.20
2007,09,18,03,44,9.20
2007,09,18,03,45,9.20
2007,09,18,03,46,9.20
2007,09,18,03,47,9.20
2007,09,18,03,48,9.20
2007,09,18,03,49,9.20
2007,09,18,03,50,9.20
2007,09,18,03,51,9.10
2007,09,18,03,52,9.10
2007,09,18,03,53,9.10
2007,09,18,03,54,9.10
2007,09,18,03,55,9.10
2007,09,18,03,56,9.10
2007,09,18,03,57,9.10
2007,09,18,03,58,9.10
2007,09,18,03,59,9.10
2007,09,18,04,00,9.10
2007,09,18,04,01,9.10
2007,09,18,04,02,9.10
2007,09,18,04,03,9.10
2007,09,18,04,04,9.10
2007,09,18,04,05,9.10
2007,09,18,04,06,9.10
2007,09,18,04,07,9.10
2007,09,18,04,08,9.10
2007,09,18,04,09,9.10
2007,09,18,04,10,9.10
2007,09,18,04,11,9.10
2007,09,18,04,12,9.10
2007,09,18,04,13,9.10
2007,09,18,04,14,9.10
2007,09,18,04,15,9.10
2007,09,18,04,16,9.10
2007,09,18,04,17,9.10
2007,09,18,04,18,9.10
2007,09,18,04,19,9.10
2007,09,18,04,20,9.10
2007,09,18,04,21,9.10
2007,09,18,04,22,9.10
2007,09,18,04,23,9.20
2007,09,18,04,24,9.20
2007,09,18,04,25,9.20
2007,09,18,04,26,9.20
2007,09,18,04,27,9.30
2007,09,18,04,28,9.30
2007,09,18,04,29,9.30
2007,09,18,04,30,9.30
2007,09,18,04,31,9.30
2007,09,18,04,32,9.30
2007,09,18,04,33,9.30
2007,09,18,04,34,9.30
2007,09,18,04,35,9.30
2007,09,18,04,36,9.30
2007,09,18,04,37,9.30
2007,09,18,04,38,9.30
2007,09,18,04,39,9.30
2007,09,18,04,40,9.30
2007,09,18,04,41,9.30
2007,09,18,04,42,9.30
2007,09,18,04,43,9.30
2007,09,18,04,44,9.30
2007,09,18,04,45,9.30
2007,09,18,04,46,9.30
2007,09,18,04,47,9.20
2007,09,18,04,48,9.20
2007,09,18,04,49,9.30
2007,09,18,04,50,9.30
2007,09,18,04,51,9.30
2007,09,18,04,52,9.20
2007,09,18,04,53,9.20
2007,09,18,04,54,9.20
2007,09,18,04,55,9.20
2007,09,18,04,56,9.20
2007,09,18,04,57,9.20
2007,09,18,04,58,9.20
2007,09,18,04,59,9.20
2007,09,18,05,00,9.20
2007,09,18,05,01,9.20
2007,09,18,05,02,9.20
2007,09,18,05,03,9.20
2007,09,18,05,04,9.20
2007,09,18,05,05,9.20
2007,09,18,05,06,9.20
2007,09,18,05,07,9.20
2007,09,18,05,08,9.20
2007,09,18,05,09,9.20
2007,09,18,05,10,9.20
2007,09,18,05,11,9.20
2007,09,18,05,12,9.20
2007,09,18,05,13,9.20
2007,09,18,05,14,9.20
2007,09,18,05,15,9.20
2007,09,18,05,16,9.20
2007,09,18,05,17,9.20
2007,09,18,05,18,9.20
2007,09,18,05,19,9.20
2007,09,18,05,20,9.20
2007,09,18,05,21,9.20
2007,09,18,05,22,9.20
2007,09,18,05,23,9.20
2007,09,18,05,24,9.20
2007,09,18,05,25,9.30
2007,09,18,05,26,9.30
2007,09,18,05,27,9.30
2007,09,18,05,28,9.30
2007,09,18,05,29,9.30
2007,09,18,05,30,9.30
2007,09,18,05,31,9.30
2007,09,18,05,32,9.30
2007,09,18,05,33,9.30
2007,09,18,05,34,9.30
2007,09,18,05,35,9.30
2007,09,18,05,36,9.30
2007,09,18,05,37,9.30
2007,09,18,05,38,9.30
2007,09,18,05,39,9.30
2007,09,18,05,40,9.30
2007,09,18,05,41,9.30
2007,09,18,05,42,9.30
2007,09,18,05,43,9.30
2007,09,18,05,44,9.30
2007,09,18,05,45,9.30
2007,09,18,05,46,9.30
2007,09,18,05,47,9.30
2007,09,18,05,48,9.30
2007,09,18,05,49,9.30
2007,09,18,05,50,9.30
2007,09,18,05,51,9.30
2007,09,18,05,52,9.30
2007,09,18,05,53,9.30
2007,09,18,05,54,9.30
2007,09,18,05,55,9.20
2007,09,18,05,56,9.30
2007,09,18,05,57,9.30
2007,09,18,05,58,9.30
2007,09,18,05,59,9.30
2007,09,18,06,00,9.30
2007,09,18,06,01,9.30
2007,09,18,06,02,9.30
2007,09,18,06,03,9.30
2007,09,18,06,04,9.30
2007,09,18,06,05,9.30
2007,09,18,06,06,9.30
2007,09,18,06,07,9.30
2007,09,18,06,08,9.30
2007,09,18,06,09,9.30
2007,09,18,06,10,9.30
2007,09,18,06,11,9.30
2007,09,18,06,12,9.30
2007,09,18,06,13,9.30
2007,09,18,06,14,9.40
2007,09,18,06,15,9.40
2007,09,18,06,16,9.40
2007,09,18,06,17,9.40
2007,09,18,06,18,9.40
2007,09,18,06,19,9.40
2007,09,18,06,20,9.40
2007,09,18,06,21,9.40
2007,09,18,06,22,9.40
2007,09,18,06,23,9.40
2007,09,18,06,24,9.40
2007,09,18,06,25,9.40
2007,09,18,06,26,9.40
2007,09,18,06,27,9.40
2007,09,18,06,28,9.40
2007,09,18,06,29,9.40
2007,09,18,06,30,9.40
2007,09,18,06,31,9.30
2007,09,18,06,32,9.30
2007,09,18,06,33,9.30
2007,09,18,06,34,9.30
2007,09,18,06,35,9.30
2007,09,18,06,36,9.30
2007,09,18,06,37,9.30
2007,09,18,06,38,9.30
2007,09,18,06,39,9.30
2007,09,18,06,40,9.30
2007,09,18,06,41,9.30
2007,09,18,06,42,9.30
2007,09,18,06,43,9.30
2007,09,18,06,44,9.30
2007,09,18,06,45,9.30
2007,09,18,06,46,9.30
2007,09,18,06,47,9.30
2007,09,18,06,48,9.30
2007,09,18,06,49,9.30
2007,09,18,06,50,9.30
2007,09,18,06,51,9.30
2007,09,18,06,52,9.30
2007,09,18,06,53,9.30
2007,09,18,06,54,9.30
2007,09,18,06,55,9.30
2007,09,18,06,56,9.30
2007,09,18,06,57,9.30
2007,09,18,06,58,9.20
2007,09,18,06,59,9.20
2007,09,18,07,00,9.20
2007,09,18,07,01,9.20
2007,09,18,07,02,9.20
2007,09,18,07,03,9.20
2007,09,18,07,04,9.20
2007,09,18,07,05,9.10
2007,09,18,07,06,9.10
2007,09,18,07,07,9.10
2007,09,18,07,08,9.10
2007,09,18,07,09,9.10
2007,09,18,07,10,9.10
2007,09,18,07,11,9.10
2007,09,18,07,12,9.10
2007,09,18,07,13,9.10
2007,09,18,07,14,9.10
2007,09,18,07,15,9.00
2007,09,18,07,16,9.00
2007,09,18,07,17,9.00
2007,09,18,07,18,9.00
2007,09,18,07,19,8.90
2007,09,18,07,20,8.90
2007,09,18,07,21,8.90
2007,09,18,07,22,8.90
2007,09,18,07,23,8.90
2007,09,18,07,24,8.90
2007,09,18,07,25,8.90
2007,09,18,07,26,8.90
2007,09,18,07,27,8.90
2007,09,18,07,28,8.90
2007,09,18,07,29,8.90
2007,09,18,07,30,8.90
2007,09,18,07,31,8.90
2007,09,18,07,32,8.90
2007,09,18,07,33,8.90
2007,09,18,07,34,8.90
2007,09,18,07,35,8.90
2007,09,18,07,36,8.90
2007,09,18,07,37,8.90
2007,09,18,07,38,8.80
2007,09,18,07,39,8.80
2007,09,18,07,40,8.80
2007,09,18,07,41,8.80
2007,09,18,07,42,8.80
2007,09,18,07,43,8.80
2007,09,18,07,44,8.80
2007,09,18,07,45,8.80
2007,09,18,07,46,8.80
2007,09,18,07,47,8.80
2007,09,18,07,48,8.80
2007,09,18,07,49,8.80
2007,09,18,07,50,8.80
2007,09,18,07,51,8.80
2007,09,18,07,52,8.80
2007,09,18,07,53,8.80
2007,09,18,07,54,8.80
2007,09,18,07,55,8.80
2007,09,18,07,56,8.80
2007,09,18,07,57,8.80
2007,09,18,07,58,8.80
2007,09,18,07,59,8.80
2007,09,18,08,00,8.80
2007,09,18,08,01,8.80
2007,09,18,08,02,8.80
2007,09,18,08,03,8.80
2007,09,18,08,04,8.80
2007,09,18,08,05,8.80
2007,09,18,08,06,8.90
2007,09,18,08,07,8.90
2007,09,18,08,08,8.90
2007,09,18,08,09,8.90
2007,09,18,08,10,8.90
2007,09,18,08,11,8.90
2007,09,18,08,12,9.00
2007,09,18,08,13,9.00
2007,09,18,08,14,9.10
2007,09,18,08,15,9.10
2007,09,18,08,16,9.20
2007,09,18,08,17,9.30
2007,09,18,08,18,9.40
2007,09,18,08,19,9.50
2007,09,18,08,20,9.60
2007,09,18,08,21,9.70
2007,09,18,08,22,9.80
2007,09,18,08,23,9.90
2007,09,18,08,24,10.00
2007,09,18,08,25,10.20
2007,09,18,08,26,10.30
2007,09,18,08,27,10.40
2007,09,18,08,28,10.50
2007,09,18,08,29,10.50
2007,09,18,08,30,10.60
2007,09,18,08,31,10.70
2007,09,18,08,32,10.80
2007,09,18,08,33,10.90
2007,09,18,08,34,11.10
2007,09,18,08,35,11.20
2007,09,18,08,36,11.30
2007,09,18,08,37,11.40
2007,09,18,08,38,11.50
2007,09,18,08,39,11.50
2007,09,18,08,40,11.50
2007,09,18,08,41,11.60
2007,09,18,08,42,11.60
2007,09,18,08,43,11.50
2007,09,18,08,44,11.50
2007,09,18,08,45,11.40
2007,09,18,08,46,11.40
2007,09,18,08,47,11.50
2007,09,18,08,48,11.50
2007,09,18,08,49,11.60
2007,09,18,08,50,11.60
2007,09,18,08,51,11.60
2007,09,18,08,52,11.70
2007,09,18,08,53,11.70
2007,09,18,08,54,11.70
2007,09,18,08,55,11.70
2007,09,18,08,56,11.70
2007,09,18,08,57,11.70
2007,09,18,08,58,11.70
2007,09,18,08,59,11.70
2007,09,18,09,00,11.70
2007,09,18,09,01,11.70
2007,09,18,09,02,11.80
2007,09,18,09,03,11.80
2007,09,18,09,04,11.80
2007,09,18,09,05,11.80
2007,09,18,09,06,11.80
2007,09,18,09,07,11.80
2007,09,18,09,08,11.80
2007,09,18,09,09,11.80
2007,09,18,09,10,11.90
2007,09,18,09,11,11.90
2007,09,18,09,12,12.00
2007,09,18,09,13,12.10
2007,09,18,09,14,12.20
2007,09,18,09,15,12.30
2007,09,18,09,16,12.30
2007,09,18,09,17,12.40
2007,09,18,09,18,12.50
2007,09,18,09,19,12.60
2007,09,18,09,20,12.70
2007,09,18,09,21,12.70
2007,09,18,09,22,12.70
2007,09,18,09,23,12.70
2007,09,18,09,24,12.70
2007,09,18,09,25,12.70
2007,09,18,09,26,12.70
2007,09,18,09,27,12.70
2007,09,18,09,28,12.70
2007,09,18,09,29,12.70
2007,09,18,09,30,12.70
2007,09,18,09,31,12.70
2007,09,18,09,32,12.60
2007,09,18,09,33,12.60
2007,09,18,09,34,12.60
2007,09,18,09,35,12.60
2007,09,18,09,36,12.60
2007,09,18,09,37,12.60
2007,09,18,09,38,12.60
2007,09,18,09,39,12.70
2007,09,18,09,40,12.70
2007,09,18,09,41,12.80
2007,09,18,09,42,12.90
2007,09,18,09,43,13.00
2007,09,18,09,44,13.10
2007,09,18,09,45,13.20
2007,09,18,09,46,13.30
2007,09,18,09,47,13.30
2007,09,18,09,48,13.30
2007,09,18,09,49,13.40
2007,09,18,09,50,13.50
2007,09,18,09,51,13.60
2007,09,18,09,52,13.70
2007,09,18,09,53,13.70
2007,09,18,09,54,13.80
2007,09,18,09,55,13.80
2007,09,18,09,56,13.80
2007,09,18,09,57,13.80
2007,09,18,09,58,13.80
2007,09,18,09,59,13.90
2007,09,18,10,00,14.00
2007,09,18,10,01,14.00
2007,09,18,10,02,14.10
2007,09,18,10,03,14.20
2007,09,18,10,04,14.20
2007,09,18,10,05,14.30
2007,09,18,10,06,14.40
2007,09,18,10,07,14.40
2007,09,18,10,08,14.50
2007,09,18,10,09,14.50
2007,09,18,10,10,14.50
2007,09,18,10,11,14.60
2007,09,18,10,12,14.60
2007,09,18,10,13,14.50
2007,09,18,10,14,14.50
2007,09,18,10,15,14.50
2007,09,18,10,16,14.50
2007,09,18,10,17,14.40
2007,09,18,10,18,14.50
2007,09,18,10,19,14.50
2007,09,18,10,20,14.50
2007,09,18,10,21,14.50
2007,09,18,10,22,14.50
2007,09,18,10,23,14.60
2007,09,18,10,24,14.60
2007,09,18,10,25,14.60
2007,09,18,10,26,14.60
2007,09,18,10,27,14.60
2007,09,18,10,28,14.70
2007,09,18,10,29,14.80
2007,09,18,10,30,15.00
2007,09,18,10,31,15.00
2007,09,18,10,32,15.00
2007,09,18,10,33,15.00
2007,09,18,10,34,15.10
2007,09,18,10,35,15.20
2007,09,18,10,36,15.10
2007,09,18,10,37,15.00
2007,09,18,10,38,15.00
2007,09,18,10,39,15.00
2007,09,18,10,40,15.00
2007,09,18,10,41,15.00
2007,09,18,10,42,15.10
2007,09,18,10,43,15.20
2007,09,18,10,44,15.20
2007,09,18,10,45,15.20
2007,09,18,10,46,15.20
2007,09,18,10,47,15.20
2007,09,18,10,48,15.20
2007,09,18,10,49,15.20
2007,09,18,10,50,15.30
2007,09,18,10,51,15.10
2007,09,18,10,52,15.00
2007,09,18,10,53,15.00
2007,09,18,10,54,15.00
2007,09,18,10,55,15.00
2007,09,18,10,56,15.10
2007,09,18,10,57,15.10
2007,09,18,10,58,15.20
2007,09,18,10,59,15.20
2007,09,18,11,00,15.20
2007,09,18,11,01,15.20
2007,09,18,11,02,15.20
2007,09,18,11,03,15.10
2007,09,18,11,04,15.20
2007,09,18,11,05,15.30
2007,09,18,11,06,15.30
2007,09,18,11,07,15.20
2007,09,18,11,08,15.10
2007,09,18,11,09,15.00
2007,09,18,11,10,15.00
2007,09,18,11,11,15.00
2007,09,18,11,12,14.90
2007,09,18,11,13,14.70
2007,09,18,11,14,14.70
2007,09,18,11,15,14.60
2007,09,18,11,16,14.60
2007,09,18,11,17,14.60
2007,09,18,11,18,14.50
2007,09,18,11,19,14.50
2007,09,18,11,20,14.50
2007,09,18,11,21,14.50
2007,09,18,11,22,14.50
2007,09,18,11,23,14.40
2007,09,18,11,24,14.30
2007,09,18,11,25,14.20
2007,09,18,11,26,14.10
2007,09,18,11,27,14.10
2007,09,18,11,28,14.10
2007,09,18,11,29,14.10
2007,09,18,11,30,14.00
2007,09,18,11,31,14.00
2007,09,18,11,32,14.00
2007,09,18,11,33,14.10
2007,09,18,11,34,14.10
2007,09,18,11,35,14.20
2007,09,18,11,36,14.20
2007,09,18,11,37,14.20
2007,09,18,11,38,14.20
2007,09,18,11,39,14.20
2007,09,18,11,40,14.20
2007,09,18,11,41,14.30
2007,09,18,11,42,14.30
2007,09,18,11,43,14.30
2007,09,18,11,44,14.30
2007,09,18,11,45,14.40
2007,09,18,11,46,14.40
2007,09,18,11,47,14.40
2007,09,18,11,48,14.40
2007,09,18,11,49,14.40
2007,09,18,11,50,14.40
2007,09,18,11,51,14.40
2007,09,18,11,52,14.40
2007,09,18,11,53,14.40
2007,09,18,11,54,14.40
2007,09,18,11,55,14.40
2007,09,18,11,56,14.40
2007,09,18,11,57,14.50
2007,09,18,11,58,14.70
2007,09,18,11,59,14.80
2007,09,18,12,00,14.80
2007,09,18,12,01,14.80
2007,09,18,12,02,14.80
2007,09,18,12,03,14.70
2007,09,18,12,04,14.50
2007,09,18,12,05,14.50
2007,09,18,12,06,14.40
2007,09,18,12,07,14.30
2007,09,18,12,08,14.20
2007,09,18,12,09,14.20
2007,09,18,12,10,14.10
2007,09,18,12,11,14.10
2007,09,18,12,12,14.10
2007,09,18,12,13,14.10
2007,09,18,12,14,14.10
2007,09,18,12,15,14.10
2007,09,18,12,16,14.10
2007,09,18,12,17,14.10
2007,09,18,12,18,14.10
2007,09,18,12,19,14.10
2007,09,18,12,20,14.10
2007,09,18,12,21,14.10
2007,09,18,12,22,14.10
2007,09,18,12,23,14.00
2007,09,18,12,24,14.00
2007,09,18,12,25,14.00
2007,09,18,12,26,14.00
2007,09,18,12,27,14.00
2007,09,18,12,28,14.00
2007,09,18,12,29,13.90
2007,09,18,12,30,13.90
2007,09,18,12,31,13.90
2007,09,18,12,32,13.90
2007,09,18,12,33,13.90
2007,09,18,12,34,13.80
2007,09,18,12,35,13.80
2007,09,18,12,36,13.80
2007,09,18,12,37,13.80
2007,09,18,12,38,13.80
2007,09,18,12,39,13.80
2007,09,18,12,40,13.80
2007,09,18,12,41,13.80
2007,09,18,12,42,13.80
2007,09,18,12,43,13.80
2007,09,18,12,44,13.80
2007,09,18,12,45,13.80
2007,09,18,12,46,13.80
2007,09,18,12,47,13.80
2007,09,18,12,48,13.80
2007,09,18,12,49,13.80
2007,09,18,12,50,13.80
2007,09,18,12,51,13.80
2007,09,18,12,52,13.80
2007,09,18,12,53,13.80
2007,09,18,12,54,13.80
2007,09,18,12,55,13.80
2007,09,18,12,56,13.80
2007,09,18,12,57,13.90
2007,09,18,12,58,13.90
2007,09,18,12,59,13.90
2007,09,18,13,00,13.90
2007,09,18,13,01,13.90
2007,09,18,13,02,13.90
2007,09,18,13,03,13.90
2007,09,18,13,04,13.90
2007,09,18,13,05,13.90
2007,09,18,13,06,13.90
2007,09,18,13,07,13.90
2007,09,18,13,08,13.90
2007,09,18,13,09,14.00
2007,09,18,13,10,14.00
2007,09,18,13,11,13.90
2007,09,18,13,12,13.90
2007,09,18,13,13,13.90
2007,09,18,13,14,13.90
2007,09,18,13,15,13.80
2007,09,18,13,16,13.80
2007,09,18,13,17,13.80
2007,09,18,13,18,13.70
2007,09,18,13,19,13.70
2007,09,18,13,20,13.70
2007,09,18,13,21,13.60
2007,09,18,13,22,13.60
2007,09,18,13,23,13.60
2007,09,18,13,24,13.60
2007,09,18,13,25,13.50
2007,09,18,13,26,13.50
2007,09,18,13,27,13.50
2007,09,18,13,28,13.40
2007,09,18,13,29,13.40
2007,09,18,13,30,13.30
2007,09,18,13,31,13.30
2007,09,18,13,32,13.20
2007,09,18,13,33,13.20
2007,09,18,13,34,13.10
2007,09,18,13,35,13.10
2007,09,18,13,36,13.10
2007,09,18,13,37,13.10
2007,09,18,13,38,13.00
2007,09,18,13,39,12.90
2007,09,18,13,40,12.90
2007,09,18,13,41,12.80
2007,09,18,13,42,12.80
2007,09,18,13,43,12.70
2007,09,18,13,44,12.70
2007,09,18,13,45,12.60
2007,09,18,13,46,12.60
2007,09,18,13,47,12.60
2007,09,18,13,48,12.50
2007,09,18,13,49,12.50
2007,09,18,13,50,12.40
2007,09,18,13,51,12.30
2007,09,18,13,52,12.30
2007,09,18,13,53,12.30
2007,09,18,13,54,12.30
2007,09,18,13,55,12.30
2007,09,18,13,56,12.30
2007,09,18,13,57,12.30
2007,09,18,13,58,12.20
2007,09,18,13,59,12.20
2007,09,18,14,00,12.20
2007,09,18,14,01,12.20
2007,09,18,14,02,12.10
2007,09,18,14,03,12.10
2007,09,18,14,04,12.00
2007,09,18,14,05,12.00
2007,09,18,14,06,12.00
2007,09,18,14,07,11.90
2007,09,18,14,08,11.90
2007,09,18,14,09,11.90
2007,09,18,14,10,11.90
2007,09,18,14,11,11.90
2007,09,18,14,12,11.90
2007,09,18,14,13,11.90
2007,09,18,14,14,11.90
2007,09,18,14,15,11.90
2007,09,18,14,16,11.90
2007,09,18,14,17,11.90
2007,09,18,14,18,11.90
2007,09,18,14,19,11.80
2007,09,18,14,20,11.80
2007,09,18,14,21,11.90
2007,09,18,14,22,11.90
2007,09,18,14,23,11.80
2007,09,18,14,24,11.90
2007,09,18,14,25,11.90
2007,09,18,14,26,11.90
2007,09,18,14,27,11.90
2007,09,18,14,28,11.90
2007,09,18,14,29,11.90
2007,09,18,14,30,12.00
2007,09,18,14,31,12.00
2007,09,18,14,32,12.10
2007,09,18,14,33,12.10
2007,09,18,14,34,12.10
2007,09,18,14,35,12.10
2007,09,18,14,36,12.10
2007,09,18,14,37,12.10
2007,09,18,14,38,12.10
2007,09,18,14,39,12.10
2007,09,18,14,40,12.10
2007,09,18,14,41,12.10
2007,09,18,14,42,12.10
2007,09,18,14,43,12.10
2007,09,18,14,44,12.10
2007,09,18,14,45,12.10
2007,09,18,14,46,12.00
2007,09,18,14,47,12.00
2007,09,18,14,48,12.00
2007,09,18,14,49,11.90
2007,09,18,14,50,11.90
2007,09,18,14,51,11.90
2007,09,18,14,52,12.00
2007,09,18,14,53,12.00
2007,09,18,14,54,12.00
2007,09,18,14,55,12.10
2007,09,18,14,56,12.10
2007,09,18,14,57,12.20
2007,09,18,14,58,12.20
2007,09,18,14,59,12.30
2007,09,18,15,00,12.40
2007,09,18,15,01,12.50
2007,09,18,15,02,12.50
2007,09,18,15,03,12.60
2007,09,18,15,04,12.60
2007,09,18,15,05,12.70
2007,09,18,15,06,12.70
2007,09,18,15,07,12.70
2007,09,18,15,08,12.80
2007,09,18,15,09,12.80
2007,09,18,15,10,12.80
2007,09,18,15,11,12.80
2007,09,18,15,12,12.80
2007,09,18,15,13,12.70
2007,09,18,15,14,12.70
2007,09,18,15,15,12.70
2007,09,18,15,16,12.60
2007,09,18,15,17,12.60
2007,09,18,15,18,12.50
2007,09,18,15,19,12.50
2007,09,18,15,20,12.50
2007,09,18,15,21,12.50
2007,09,18,15,22,12.40
2007,09,18,15,23,12.40
2007,09,18,15,24,12.40
2007,09,18,15,25,12.40
2007,09,18,15,26,12.40
2007,09,18,15,27,12.40
2007,09,18,15,28,12.40
2007,09,18,15,29,12.40
2007,09,18,15,30,12.40
2007,09,18,15,31,12.40
2007,09,18,15,32,12.40
2007,09,18,15,33,12.40
2007,09,18,15,34,12.40
2007,09,18,15,35,12.40
2007,09,18,15,36,12.30
2007,09,18,15,37,12.20
2007,09,18,15,38,12.20
2007,09,18,15,39,12.20
2007,09,18,15,40,12.10
2007,09,18,15,41,12.10
2007,09,18,15,42,12.10
2007,09,18,15,43,12.10
2007,09,18,15,44,12.10
2007,09,18,15,45,12.10
2007,09,18,15,46,12.00
2007,09,18,15,47,12.00
2007,09,18,15,48,12.00
2007,09,18,15,49,12.00
2007,09,18,15,50,12.00
2007,09,18,15,51,12.10
2007,09,18,15,52,12.10
2007,09,18,15,53,12.10
2007,09,18,15,54,12.10
2007,09,18,15,55,12.10
2007,09,18,15,56,12.10
2007,09,18,15,57,12.10
2007,09,18,15,58,12.10
2007,09,18,15,59,12.10
2007,09,18,16,00,12.20
2007,09,18,16,01,12.20
2007,09,18,16,02,12.20
2007,09,18,16,03,12.20
2007,09,18,16,04,12.30
2007,09,18,16,05,12.30
2007,09,18,16,06,12.30
2007,09,18,16,07,12.30
2007,09,18,16,08,12.30
2007,09,18,16,09,12.30
2007,09,18,16,10,12.30
2007,09,18,16,11,12.30
2007,09,18,16,12,12.40
2007,09,18,16,13,12.40
2007,09,18,16,14,12.40
2007,09,18,16,15,12.40
2007,09,18,16,16,12.40
2007,09,18,16,17,12.40
2007,09,18,16,18,12.40
2007,09,18,16,19,12.40
2007,09,18,16,20,12.50
2007,09,18,16,21,12.50
2007,09,18,16,22,12.50
2007,09,18,16,23,12.50
2007,09,18,16,24,12.50
2007,09,18,16,25,12.60
2007,09,18,16,26,12.60
2007,09,18,16,27,12.60
2007,09,18,16,28,12.70
2007,09,18,16,29,12.60
2007,09,18,16,30,12.60
2007,09,18,16,31,12.50
2007,09,18,16,32,12.40
2007,09,18,16,33,12.40
2007,09,18,16,34,12.40
2007,09,18,16,35,12.40
2007,09,18,16,36,12.40
2007,09,18,16,37,12.40
2007,09,18,16,38,12.30
2007,09,18,16,39,12.30
2007,09,18,16,40,12.30
2007,09,18,16,41,12.30
2007,09,18,16,42,12.30
2007,09,18,16,43,12.30
2007,09,18,16,44,12.30
2007,09,18,16,45,12.30
2007,09,18,16,46,12.30
2007,09,18,16,47,12.30
2007,09,18,16,48,12.30
2007,09,18,16,49,12.30
2007,09,18,16,50,12.20
2007,09,18,16,51,12.20
2007,09,18,16,52,12.20
2007,09,18,16,53,12.20
2007,09,18,16,54,12.20
2007,09,18,16,55,12.20
2007,09,18,16,56,12.10
2007,09,18,16,57,12.10
2007,09,18,16,58,12.00
2007,09,18,16,59,12.00
2007,09,18,17,00,11.90
2007,09,18,17,01,11.90
2007,09,18,17,02,11.90
2007,09,18,17,03,11.90
2007,09,18,17,04,11.90
2007,09,18,17,05,11.80
2007,09,18,17,06,11.80
2007,09,18,17,07,11.70
2007,09,18,17,08,11.60
2007,09,18,17,09,11.50
2007,09,18,17,10,11.50
2007,09,18,17,11,11.40
2007,09,18,17,12,11.40
2007,09,18,17,13,11.40
2007,09,18,17,14,11.30
2007,09,18,17,15,11.30
2007,09,18,17,16,11.20
2007,09,18,17,17,11.20
2007,09,18,17,18,11.20
2007,09,18,17,19,11.10
2007,09,18,17,20,11.10
2007,09,18,17,21,11.10
2007,09,18,17,22,11.10
2007,09,18,17,23,11.10
2007,09,18,17,24,11.00
2007,09,18,17,25,10.90
2007,09,18,17,26,10.90
2007,09,18,17,27,10.80
2007,09,18,17,28,10.70
2007,09,18,17,29,10.60
2007,09,18,17,30,10.50
2007,09,18,17,31,10.40
2007,09,18,17,32,10.30
2007,09,18,17,33,10.30
2007,09,18,17,34,10.20
2007,09,18,17,35,10.20